When you browse on this site, cookies collect data to enhance your experience and personalize the content and advertising you see.
Visit our Privacy Policy to learn more. By continuing to use the site, you agree to this use of cookies and data.
  • In Switzerland
  • List of Countries
  • For 7 days
  • Water Temperature
  • Satellite Maps
  • Weather Map
  • Weather Widgets
  • user-avatar
    Login

    Hourly Weather Rio de Janeiro

    Today, 24 January, Thursday

    Time Temperature Precipitation Wind Pressure Humidity
    00:00 +30°C° 0 mm 1 mps 759 mmHg 64%
    01:00 +30°C° 0 mm 1 mps 758 mmHg 65%
    02:00 +29°C° 0 mm 1 mps 758 mmHg 67%
    03:00 +29°C° 0 mm 1 mps 758 mmHg 68%
    04:00 +29°C° 0 mm 1 mps 758 mmHg 68%
    05:00 +29°C° 0 mm 1 mps 758 mmHg 68%
    06:00 +29°C° 0 mm 1 mps 758 mmHg 68%
    07:00 +31°C° 0 mm 1 mps 758 mmHg 60%
    08:00 +31°C° 0 mm 0 mps 758 mmHg 52%
    09:00 +33°C° 0 mm 0 mps 759 mmHg 45%
    10:00 +37°C° 0 mm 1 mps 758 mmHg 40%
    11:00 +40°C° 0 mm 2 mps 758 mmHg 36%
    12:00 +43°C° 0 mm 3 mps 758 mmHg 32%
    13:00 +42°C° 0 mm 3 mps 758 mmHg 34%
    14:00 +41°C° 0 mm 4 mps 757 mmHg 37%
    15:00 +39°C° 0 mm 5 mps 757 mmHg 40%
    16:00 +37°C° 0 mm 4 mps 757 mmHg 44%
    17:00 +36°C° 0 mm 4 mps 757 mmHg 48%
    18:00 +35°C° 0 mm 3 mps 757 mmHg 53%
    19:00 +34°C° 0 mm 2 mps 757 mmHg 57%
    20:00 +32°C° 0 mm 2 mps 758 mmHg 60%
    21:00 +31°C° 0 mm 2 mps 758 mmHg 64%
    22:00 +31°C° 0 mm 1 mps 759 mmHg 66%
    23:00 +30°C° 0 mm 1 mps 759 mmHg 67%

    Tomorrow, 25 January, Friday

    Time Temperature Precipitation Wind Pressure Humidity
    00:00 +30°C° 0 mm 1 mps 759 mmHg 68%
    01:00 +30°C° 0 mm 1 mps 758 mmHg 69%
    02:00 +29°C° 0 mm 1 mps 758 mmHg 69%
    03:00 +29°C° 0 mm 1 mps 757 mmHg 70%
    04:00 +29°C° 0 mm 1 mps 758 mmHg 70%
    05:00 +29°C° 0 mm 1 mps 758 mmHg 70%
    06:00 +29°C° 0 mm 1 mps 758 mmHg 69%
    07:00 +29°C° 0 mm 0 mps 758 mmHg 61%
    08:00 +31°C° 0 mm 0 mps 758 mmHg 53%
    09:00 +33°C° 0 mm 0 mps 759 mmHg 45%
    10:00 +37°C° 0 mm 1 mps 759 mmHg 41%
    11:00 +39°C° 0 mm 2 mps 759 mmHg 38%
    12:00 +41°C° 0 mm 4 mps 758 mmHg 35%
    13:00 +38°C° 0.5 mm 4 mps 758 mmHg 40%
    14:00 +37°C° 0.5 mm 4 mps 758 mmHg 45%
    15:00 +36°C° 0.5 mm 4 mps 757 mmHg 50%
    16:00 +34°C° 3 mm 3 mps 758 mmHg 55%
    17:00 +33°C° 3 mm 3 mps 758 mmHg 60%
    18:00 +31°C° 3 mm 2 mps 758 mmHg 65%
    19:00 +30°C° 1.8 mm 2 mps 759 mmHg 67%
    20:00 +29°C° 1.8 mm 1 mps 759 mmHg 69%
    21:00 +29°C° 1.8 mm 1 mps 760 mmHg 70%
    22:00 +28°C° 0 mm 2 mps 760 mmHg 70%
    23:00 +28°C° 0 mm 2 mps 760 mmHg 70%

    Day after tomorrow, 26 January, Saturday

    Time Temperature Precipitation Wind Pressure Humidity
    00:00 +28°C° 0 mm 2 mps 760 mmHg 70%
    01:00 +28°C° 0 mm 2 mps 760 mmHg 70%
    02:00 +27°C° 0 mm 2 mps 759 mmHg 70%
    03:00 +27°C° 0 mm 2 mps 759 mmHg 70%
    04:00 +27°C° 0 mm 2 mps 759 mmHg 69%
    05:00 +27°C° 0 mm 2 mps 759 mmHg 69%
    06:00 +27°C° 0 mm 1 mps 759 mmHg 68%
    07:00 +28°C° 0 mm 1 mps 759 mmHg 63%
    08:00 +29°C° 0 mm 1 mps 760 mmHg 58%
    09:00 +31°C° 0 mm 1 mps 760 mmHg 53%
    10:00 +32°C° 0 mm 1 mps 760 mmHg 48%
    11:00 +34°C° 0 mm 1 mps 760 mmHg 43%
    12:00 +36°C° 0 mm 1 mps 760 mmHg 37%
    13:00 +36°C° 0 mm 1 mps 760 mmHg 37%
    14:00 +37°C° 0 mm 2 mps 759 mmHg 36%
    15:00 +38°C° 0 mm 3 mps 759 mmHg 35%
    16:00 +36°C° 0 mm 3 mps 759 mmHg 39%
    17:00 +35°C° 0 mm 3 mps 759 mmHg 43%
    18:00 +34°C° 0 mm 3 mps 759 mmHg 47%
    19:00 +33°C° 0 mm 3 mps 759 mmHg 50%
    20:00 +31°C° 0 mm 3 mps 760 mmHg 53%
    21:00 +32°C° 0 mm 4 mps 760 mmHg 56%
    22:00 +30°C° 0 mm 3 mps 760 mmHg 58%
    23:00 +29°C° 0 mm 3 mps 760 mmHg 60%

    27 January, Sunday

    Time Temperature Precipitation Wind Pressure Humidity
    00:00 +29°C° 0 mm 2 mps 760 mmHg 62%
    01:00 +28°C° 0 mm 2 mps 760 mmHg 63%
    02:00 +28°C° 0 mm 2 mps 760 mmHg 65%
    03:00 +28°C° 0 mm 2 mps 759 mmHg 66%
    04:00 +27°C° 0 mm 2 mps 760 mmHg 66%
    05:00 +27°C° 0 mm 2 mps 760 mmHg 67%
    06:00 +27°C° 0 mm 1 mps 760 mmHg 67%
    07:00 +29°C° 0 mm 1 mps 760 mmHg 59%
    08:00 +31°C° 0 mm 1 mps 761 mmHg 51%
    09:00 +34°C° 0 mm 1 mps 761 mmHg 43%
    10:00 +36°C° 0 mm 1 mps 761 mmHg 39%
    11:00 +38°C° 0 mm 2 mps 761 mmHg 35%
    12:00 +40°C° 0 mm 3 mps 760 mmHg 30%
    13:00 +40°C° 0 mm 4 mps 760 mmHg 34%
    14:00 +38°C° 0 mm 4 mps 759 mmHg 38%
    15:00 +37°C° 0 mm 5 mps 759 mmHg 42%
    16:00 +36°C° 0 mm 5 mps 759 mmHg 45%
    17:00 +36°C° 0 mm 5 mps 759 mmHg 48%
    18:00 +35°C° 0 mm 4 mps 759 mmHg 51%
    19:00 +34°C° 0 mm 4 mps 759 mmHg 54%
    20:00 +33°C° 0 mm 4 mps 760 mmHg 56%
    21:00 +32°C° 0 mm 4 mps 761 mmHg 58%
    22:00 +32°C° 0 mm 4 mps 761 mmHg 60%
    23:00 +30°C° 0 mm 3 mps 761 mmHg 61%

    28 January, Monday

    Time Temperature Precipitation Wind Pressure Humidity
    00:00 +29°C° 0 mm 3 mps 761 mmHg 63%
    01:00 +29°C° 0 mm 2 mps 761 mmHg 64%
    02:00 +29°C° 0 mm 2 mps 761 mmHg 65%
    03:00 +28°C° 0 mm 2 mps 760 mmHg 67%
    04:00 +28°C° 0 mm 2 mps 761 mmHg 67%
    05:00 +28°C° 0 mm 2 mps 761 mmHg 66%
    06:00 +27°C° 0 mm 2 mps 761 mmHg 66%
    07:00 +30°C° 0 mm 1 mps 761 mmHg 57%
    08:00 +32°C° 0 mm 1 mps 762 mmHg 47%
    09:00 +35°C° 0 mm 1 mps 762 mmHg 38%
    10:00 +36°C° 0 mm 1 mps 762 mmHg 34%
    11:00 +39°C° 0 mm 2 mps 761 mmHg 30%
    12:00 +42°C° 0 mm 3 mps 761 mmHg 26%
    13:00 +40°C° 0 mm 3 mps 760 mmHg 29%
    14:00 +41°C° 0 mm 4 mps 760 mmHg 33%
    15:00 +40°C° 0 mm 5 mps 759 mmHg 36%
    16:00 +39°C° 0 mm 5 mps 759 mmHg 40%
    17:00 +37°C° 0 mm 5 mps 759 mmHg 43%
    18:00 +37°C° 0 mm 4 mps 759 mmHg 46%
    19:00 +36°C° 0 mm 4 mps 760 mmHg 50%
    20:00 +34°C° 0 mm 4 mps 760 mmHg 53%
    21:00 +33°C° 0 mm 4 mps 761 mmHg 57%
    22:00 +33°C° 0 mm 3 mps 761 mmHg 59%
    23:00 +31°C° 0 mm 3 mps 761 mmHg 61%

    29 January, Tuesday

    Time Temperature Precipitation Wind Pressure Humidity
    00:00 +30°C° 0 mm 3 mps 761 mmHg 63%
    01:00 +30°C° 0 mm 2 mps 761 mmHg 65%
    02:00 +29°C° 0 mm 2 mps 760 mmHg 67%
    03:00 +29°C° 0 mm 2 mps 760 mmHg 68%
    04:00 +29°C° 0 mm 2 mps 760 mmHg 68%
    05:00 +28°C° 0 mm 2 mps 761 mmHg 68%
    06:00 +28°C° 0 mm 2 mps 761 mmHg 68%
    07:00 +30°C° 0 mm 1 mps 761 mmHg 59%
    08:00 +33°C° 0 mm 1 mps 761 mmHg 50%
    09:00 +35°C° 0 mm 1 mps 761 mmHg 41%
    10:00 +37°C° 0 mm 1 mps 761 mmHg 36%
    11:00 +40°C° 0 mm 2 mps 761 mmHg 31%
    12:00 +42°C° 0 mm 2 mps 760 mmHg 26%
    13:00 +42°C° 0 mm 3 mps 760 mmHg 28%
    14:00 +41°C° 0 mm 4 mps 759 mmHg 31%
    15:00 +40°C° 0 mm 5 mps 759 mmHg 34%
    16:00 +39°C° 0 mm 5 mps 759 mmHg 39%
    17:00 +37°C° 0 mm 5 mps 759 mmHg 44%
    18:00 +36°C° 0 mm 5 mps 759 mmHg 49%
    19:00 +35°C° 0 mm 5 mps 759 mmHg 53%
    20:00 +33°C° 0 mm 5 mps 760 mmHg 57%
    21:00 +32°C° 0 mm 4 mps 760 mmHg 61%
    22:00 +32°C° 0 mm 4 mps 760 mmHg 63%
    23:00 +30°C° 0 mm 3 mps 760 mmHg 65%
    Show more